Location: Charlottesville
(38.0290°N, 78.4770°W)
Time: 16:01:36
(UTC-05:00)

N. Korean satellite - Pass Details

Date: 08 October 2017
Orbit: 461 x 513 km, 97.2° (Epoch: 13 December)

Event Time Altitude Azimuth Distance (km) Brightness Sun altitude
Rises 20:11:06 0° 202° (SSW) 2,575 10.5 -17.6°
Reaches altitude 10° 20:13:44 10° 222° (SW) 1,687 9.8 -18.1°
Maximum altitude 20:16:13 17° 266° (W) 1,285 9.7 -18.6°
Drops below altitude 10° 20:18:41 10° 309° (NW) 1,676 10.1 -19.1°
Sets 20:21:17 0° 330° (NNW) 2,550 10.8 -19.6°
